User: anonymous   Login
Location: Newark
(45.2500°N, 7.5833°E)
Time: 02:35:00
(UTC+00:00)
Language:

BEESAT 2 - Orbit

View from above orbital plane
View from above orbital plane
View from above satellite
View from above satellite

Ground track
Ground track

The orbit data is extracted from the following two-line orbital elements,

1 39136U 13015G   20057.12043488 +.00000530 +00000-0 +36229-4 0  9990
2 39136 064.8687 308.7598 0029666 279.1353 080.6417 15.17348774378070
Epoch (UTC): 26 February 2020 02:53:25
Eccentricity: 0.0029666
inclination: 64.8687°
perigee height: 493 km
apogee height: 534 km
right ascension of ascending node: 308.7598°
argument of perigee: 279.1353°
revolutions per day: 15.17348774
mean anomaly at epoch: 80.6417°
orbit number at epoch: 37807

The dashed part of the orbit path shows where the satellite is in the earth's shadow,  

DLR